This is the latest recevied weather packets stored in our database for station/object OE5HCE. If no packets are shown the sender has not sent any weather packets the latest 10 day(s).
| Time | Temp. | Humidity | Pressure | Rain* | Wind** | Luminosity | Snow |
|---|---|---|---|---|---|---|---|
| 1787577332 | 25.56° C | 48% | 1019.2 hPa | 0 mm | - | 631 W/m² | - |
| 1787576440 | 25.56° C | 48% | 1019.4 hPa | 0 mm | - | 640 W/m² | - |
| 1787575533 | 25.56° C | 46% | 1019.6 hPa | 0 mm | - | 659 W/m² | - |
| 1787574627 | 25° C | 48% | 1019.6 hPa | 0 mm | - | 636 W/m² | - |
| 1787573728 | 25° C | 48% | 1019.8 hPa | 0 mm | - | 675 W/m² | - |
| 1787572823 | 24.44° C | 51% | 1019.9 hPa | 0 mm | - | 686 W/m² | - |
| 1787571921 | 23.89° C | 50% | 1020 hPa | 0 mm | - | 693 W/m² | - |
| 1787571020 | 23.89° C | 51% | 1020.1 hPa | 0 mm | - | 700 W/m² | - |
| 1787570117 | 23.89° C | 50% | 1020.2 hPa | 0 mm | - | 612 W/m² | - |
| 1787569216 | 23.33° C | 53% | 1020.4 hPa | 0 mm | - | 698 W/m² | - |
| 1787568311 | 23.33° C | 56% | 1020.6 hPa | 0 mm | - | 694 W/m² | - |
| 1787567408 | 22.22° C | 57% | 1020.8 hPa | 0 mm | - | 691 W/m² | - |
| 1787566504 | 21.67° C | 60% | 1020.9 hPa | 0 mm | - | 675 W/m² | - |
| 1787565602 | 21.11° C | 62% | 1021 hPa | 0 mm | - | 628 W/m² | - |
| 1787564758 | 20.56° C | 63% | 1021.3 hPa | 0 mm | - | 659 W/m² | - |
| 1787563863 | 20° C | 64% | 1021.3 hPa | 0 mm | - | 631 W/m² | - |
| 1787562950 | 20° C | 65% | 1021.4 hPa | 0 mm | - | 619 W/m² | - |
| 1787562057 | 19.44° C | 66% | 1021.5 hPa | 0 mm | - | 591 W/m² | - |
| 1787561147 | 18.33° C | 67% | 1021.7 hPa | 0 mm | - | 533 W/m² | - |
| 1787560237 | 17.78° C | 69% | 1021.8 hPa | 0 mm | - | 63 W/m² | - |
| 1787559335 | 17.78° C | 70% | 1021.9 hPa | 0 mm | - | 44 W/m² | - |
| 1787558432 | 17.22° C | 70% | 1021.8 hPa | 0 mm | - | 42 W/m² | - |
| 1787557529 | 16.67° C | 71% | 1021.8 hPa | 0 mm | - | 42 W/m² | - |
| 1787556637 | 16.67° C | 73% | 1022 hPa | 0 mm | - | 40 W/m² | - |
| 1787555729 | 16.11° C | 74% | 1022.1 hPa | 0 mm | - | 137 W/m² | - |
* Rain latest hour (hover to see other rain measurements)
** Current wind speed in m/s (hover to see current wind gust speed)